DELTA 1 DEB, 7126

Orbit data source: Space-Track

DELTA 1 DEB, 7126 is space debris in SSO originally from a launch on Tue, 06 Nov 1973 UTC launched from the Air Force Western Test Range (AFWTR). Debris objects in space refer to the collection of defunct objects orbiting the Earth. Examples of debris include non-operational satellites, rocket bodies, and fragments generated from explosions, collisions, or faulty payload assembly.

Loading next visibility...
Identifier
7126, 1973-086CQ
Orbit
SSO
Country
Flag of USUS
Related business
Manufacturer
Unknown
Mission
Spacecraft
Bus & Motor
Unknown
Mass
Unknown
Launch date (UTC)
1973-11-06 (52 years ago)
Launch vehicle
Unknown
Launch site
Air Force Western Test Range (AFWTR)
Object type
Payload
Rocket body
Debris
Shape & HBR
Unknown shape, 0.1 m
Radar Cross Section
Small (<0.1 m²)

Expand to show TLE details & history
Last TLE update: 1 day ago

TLE from 1 day ago
0 DELTA 1 DEB
1 07126U 73086CQ  25298.89931685  .00000312  00000-0  22880-2 0  9993
2 07126 101.9710 272.5422 0286842 347.5516  67.6128 12.40912243345327
Epoch: 2025-10-25T21:35Z
TLE epoch observation values (Epoch: 2025-10-25T21:35:00.975Z)
Latitude
56.37925°
Longitude
-104.23491°
Altitude
1,431.463 km
Speed
7.187 km/s
True Right ascension
16h 56m 10s
True Declination
56° 14' 03"
Sunlit
Object was in daylight at epoch
Visualization orbit readout
Latitude
Unknown
Longitude
Unknown
Altitude
Unknown
Speed
Unknown
Apparent Right ascension
Unknown
Apparent Declination
Unknown
Sunlit
N/A
Visualization observer readout
Local Sidereal Time
02:37:48
Azimuth
Unknown
Elevation
Unknown
Doppler factor
Unknown
Orbital elements
Apogee altitude
1,726.294 km
Perigee altitude
1,274.32 km
Semi-major axis
7,878.444 km
Eccentricity
0.02868
Inclination
101.971°
RAAN
272.5422°
Arg. of periapsis
347.5516°
True anomaly
70.6926°
Mean anomaly
67.6128°
Eccentric anomaly
69.14865°
Mean motion
3.10372 °/min
Orbital period
115.99 mins
BSTAR
0.002288
Loading maneuver chart data...
Computing Atmospheric mass density...
Loading historical data...
Loading historical data...
Loading historical data...
Loading historical data...
Loading historical data...
Loading historical data...
Loading historical data...

Documentation

Showing up to 5 results
|